SPIRALE A 1 33751U 09008C 23340.75961181 .00000580 00000-0 94567-3 0 9993 2 33751 2.0638 100.0365 5516175 192.2954 144.9129 4.59237293219508 SPIRALE B 1 33752U 09008D 23340.63145317 .00003255 00000-0 10650-2 0 9998 2 33752 1.7627 184.0526 6784161 15.4037 357.9346 2.91699648140437 SAPPHIRE 1 39088U 13009C 23340.53122779 .00000202 00000-0 86540-4 0 9990 2 39088 98.4081 167.4202 0012364 116.5888 243.6565 14.34563547564115